Theta_e
331 330 330 330 328 329 329 331 330 330 329 329 329 328 331 330 331 332 331 332 332 332 330 328 326 325 326 326 328 329 329 329 330 329 327 327 332 323 325 326 322 325 325 326 326 328 327 328 329 330 331 328 327 327 325 324 324 324 322 322 322 322 319 316 310 309 314 314 310 308 309 310 309 311 311 310 310 311 311 305 304 305 305 304 304
329 328 330 329 329 329 330 330 331 331 329 328 327 327 328 329 331 330 331 331 332 330 328 329 326 325 323 324 326 325 327 328 328 328 327 328 324 327 327 327 323 322 326 323 325 327 328 326 329 330 328 325 325 321 322 321 319 319 320 321 320 320 319 317 311 309 308 310 310 310 309 311 309 312 310 310 310 311 307 305 306 308 308 306 303
329 329 330 332 331 331 333 330 329 329 328 328 328 327 329 330 330 330 330 330 332 331 329 327 326 324 323 323 322 323 324 326 327 328 326 325 322 326 329 326 324 325 324 323 322 324 326 326 326 327 328 324 324 323 322 320 316 314 316 318 318 319 318 317 312 310 308 309 311 309 309 310 309 309 311 312 312 312 308 306 307 309 311 308 305
327 328 329 329 329 330 330 331 332 327 326 327 328 329 330 330 329 328 328 329 328 331 329 326 327 325 324 321 321 322 323 326 328 324 324 324 324 324 324 325 326 326 325 323 321 323 324 325 325 326 325 323 324 321 320 321 320 315 314 316 317 318 318 317 315 311 310 308 308 308 310 308 311 310 312 312 311 311 309 309 310 311 311 309 306
325 326 327 326 327 326 326 329 330 331 329 330 330 330 330 330 329 327 329 330 329 328 328 327 326 322 324 319 319 321 321 323 324 323 326 325 325 324 323 324 326 326 327 323 327 323 323 323 323 324 324 323 324 321 319 321 319 318 315 313 314 319 318 318 315 314 312 309 309 310 310 309 311 310 311 310 311 312 311 310 311 312 311 308 306
326 325 324 324 324 324 326 328 329 329 332 330 329 330 329 329 329 328 328 327 328 327 327 326 322 319 318 319 319 320 320 321 319 319 321 325 325 325 325 325 326 323 321 322 321 324 325 323 324 323 323 323 323 323 321 320 320 318 316 312 312 315 316 317 316 314 313 311 308 311 308 307 307 311 311 311 310 310 310 311 313 312 308 304 303
325 325 324 324 325 325 325 326 326 326 331 328 329 328 328 327 326 325 328 328 329 326 328 326 328 320 321 321 320 320 319 320 321 321 321 324 324 325 324 325 324 323 325 322 323 323 322 323 323 324 323 323 324 323 322 324 324 322 321 318 319 315 318 318 314 313 312 311 309 310 308 310 308 308 310 312 312 311 309 309 309 310 306 304 303
325 325 325 324 324 326 327 327 325 327 331 329 327 327 328 327 326 325 326 327 328 325 324 323 327 323 324 321 320 322 322 320 319 321 320 323 324 323 325 325 322 323 325 324 324 324 325 323 324 324 324 324 324 324 325 324 324 320 323 321 321 320 316 316 316 314 312 312 308 308 310 308 308 311 312 311 310 310 311 311 308 307 306 306 305
325 326 326 325 326 326 326 327 328 329 330 329 327 326 328 330 327 326 327 326 327 326 326 324 326 321 322 323 320 324 324 324 320 322 327 322 325 325 325 325 324 325 325 324 324 323 325 323 323 318 319 316 310 311 312 318 326 324 322 321 320 319 318 318 317 315 314 312 311 312 310 309 308 309 309 309 308 308 310 311 310 310 308 308 307
324 325 326 326 326 326 325 326 326 327 328 327 326 326 327 330 326 325 325 324 327 326 326 323 323 324 320 321 323 325 322 319 308 303 306 320 326 327 328 325 327 325 325 325 325 326 325 325 323 319 315 313 308 302 301 304 310 318 317 318 319 320 318 316 315 315 315 313 311 310 309 309 309 309 309 310 312 311 312 312 310 309 308 308 309
324 324 324 324 323 324 325 325 325 324 324 324 325 324 325 328 324 324 325 324 327 327 327 323 325 326 319 323 323 323 319 311 296 296 296 302 320 327 325 324 324 325 325 324 324 324 324 323 324 325 324 322 316 299 301 300 299 300 302 307 314 320 318 320 319 318 317 314 313 312 310 310 311 313 311 312 313 311 309 312 311 311 309 306 304
323 323 323 323 323 323 323 323 322 321 321 321 322 323 324 325 324 325 325 326 329 328 327 324 324 328 324 324 323 319 311 296 293 294 295 294 301 320 327 325 327 324 323 325 323 322 322 321 322 322 323 322 324 320 312 301 300 300 298 298 300 303 308 317 317 316 319 316 314 315 315 313 312 313 312 312 312 312 312 312 311 309 309 307 306
320 321 322 323 323 323 322 321 320 319 319 319 320 321 321 321 322 323 322 322 324 324 325 325 325 327 326 322 321 316 309 294 294 295 295 294 294 311 323 326 324 326 324 323 321 321 321 321 319 320 324 324 324 323 322 321 306 298 298 299 298 296 297 298 304 317 320 319 317 315 316 315 313 313 316 316 317 313 312 311 311 311 310 308 308
319 321 321 321 321 321 321 319 318 317 318 318 318 317 318 318 319 320 321 323 323 323 323 323 323 323 323 322 316 311 306 296 294 295 295 294 292 303 323 325 327 324 322 322 321 320 323 322 319 320 324 323 321 321 323 322 321 320 316 315 316 312 297 295 296 299 307 316 316 316 319 318 315 316 320 317 314 314 314 312 311 311 310 309 312
315 316 318 321 322 319 319 318 317 317 318 319 319 318 319 319 319 319 321 323 322 321 321 322 323 322 322 320 315 309 303 294 294 294 295 294 293 303 324 327 326 326 325 324 322 323 321 324 322 324 324 322 321 320 322 320 319 319 320 320 319 320 319 312 310 311 310 313 315 315 317 318 321 322 321 317 316 316 316 314 315 314 313 310 310
315 316 316 317 319 322 320 317 316 317 318 320 319 319 319 320 320 321 323 323 323 323 323 323 321 321 322 319 315 310 303 292 293 294 294 293 294 317 325 325 325 324 324 324 324 325 325 324 326 324 322 323 315 304 310 319 320 318 318 319 319 318 306 299 294 294 302 306 305 305 303 301 297 302 306 314 318 319 318 317 316 314 312 309 306
310 313 317 317 318 319 320 321 320 317 318 318 318 319 319 320 321 322 321 321 321 322 323 323 324 322 320 318 315 312 308 295 293 294 294 292 301 319 324 322 322 322 322 323 323 322 323 323 325 321 321 321 308 300 300 306 318 317 317 317 319 319 312 307 294 292 292 293 293 294 294 295 296 296 297 295 304 313 315 313 311 313 310 306 306
309 310 312 315 317 318 319 320 319 320 318 318 319 320 320 319 320 321 320 319 319 322 323 322 322 321 320 319 316 312 308 298 293 294 293 293 298 314 319 321 321 321 320 322 323 322 320 319 321 320 318 319 300 295 296 306 316 317 318 317 316 316 313 313 308 302 294 294 295 295 296 297 298 298 298 299 301 309 312 309 311 311 308 308 306
305 308 311 314 317 318 318 318 319 318 318 319 320 319 320 321 321 321 321 321 321 322 321 321 320 319 319 318 314 314 312 304 294 294 294 293 299 308 315 318 319 319 320 319 322 321 321 317 314 314 317 307 292 294 294 304 315 316 316 316 315 315 315 315 310 306 306 307 306 308 306 306 309 308 305 301 303 308 311 310 310 311 308 308 307
305 306 308 309 310 311 313 317 318 317 317 318 319 318 318 320 322 321 321 321 320 321 321 320 319 319 320 321 320 318 312 307 299 293 294 293 294 306 313 317 314 315 318 318 318 318 320 319 305 293 295 295 293 292 294 294 309 313 314 314 315 315 313 312 312 311 309 308 307 308 308 308 309 309 309 310 310 309 309 307 307 309 310 309 307
304 305 306 306 307 308 308 309 311 315 318 318 318 318 319 319 319 320 319 320 319 317 318 319 319 319 318 318 319 318 315 309 301 292 293 293 293 299 311 309 308 310 314 316 317 315 317 317 308 294 293 292 293 292 293 292 293 305 310 312 313 314 309 311 308 305 309 307 306 306 305 305 307 308 307 308 305 304 302 302 302 303 304 303 303
302 303 304 304 305 305 306 308 309 309 310 312 312 314 318 319 318 318 317 317 317 316 316 316 318 318 318 319 318 315 314 309 308 294 292 293 292 295 306 305 301 307 313 315 314 311 310 308 302 294 291 291 290 291 292 293 291 300 308 299 297 300 310 311 309 308 308 307 305 303 303 303 303 304 305 304 304 302 301 300 299 300 301 302 302
301 301 302 303 304 304 305 306 306 307 308 309 309 310 311 312 315 318 317 316 316 317 317 317 316 316 317 315 314 312 312 309 301 302 293 293 291 291 292 298 292 309 310 311 311 309 308 307 302 293 290 291 292 291 292 290 292 299 290 290 291 293 298 309 308 308 308 307 306 304 303 303 303 303 302 301 300 300 300 299 299 299 299 299 301
300 300 300 300 302 302 303 304 305 306 306 306 306 306 307 309 309 309 310 313 312 314 316 315 315 315 315 314 312 312 311 310 301 299 295 289 289 289 289 290 292 305 308 312 310 307 305 304 299 292 292 292 290 289 290 291 294 289 289 290 290 293 304 309 308 310 306 304 303 303 304 304 303 303 301 300 299 299 299 300 300 300 299 298 299
299 298 299 299 299 301 302 302 303 304 304 304 304 304 305 306 305 306 307 307 307 306 307 310 310 311 310 312 312 310 310 309 307 299 292 290 290 290 289 288 290 290 307 309 306 303 296 293 293 294 294 295 294 294 295 290 288 289 290 290 295 301 306 309 309 308 306 304 304 305 305 304 304 302 300 299 299 299 298 299 299 299 299 297 297
299 298 298 299 299 299 300 301 301 301 301 302 302 303 304 302 301 301 302 303 304 305 304 305 305 306 307 307 307 307 308 308 307 306 300 297 296 290 289 289 291 291 292 300 292 290 290 294 295 297 298 298 302 303 302 300 294 292 292 293 301 304 306 308 307 307 306 305 304 303 303 300 299 299 299 299 297 296 296 296 296 295 296 296 296
300 300 299 299 300 300 299 299 300 299 298 298 299 300 301 300 299 297 298 298 300 302 303 302 302 302 303 304 304 302 302 300 300 301 302 302 303 302 304 305 293 290 298 305 300 300 297 297 301 296 296 292 291 294 296 297 296 297 301 303 304 305 305 306 306 306 305 304 302 302 298 298 299 297 297 297 296 295 295 294 295 294 295 295 295
300 301 302 301 299 300 300 294 298 299 298 297 296 297 299 299 296 296 296 296 297 298 300 298 299 301 302 301 301 299 299 299 297 296 296 296 297 300 303 304 304 305 303 301 302 304 305 300 297 298 299 300 299 300 302 303 301 300 301 302 303 303 302 300 301 305 306 306 302 299 298 298 296 297 296 296 296 295 296 295 295 294 295 295 292
298 298 299 299 299 300 302 300 300 299 297 295 294 294 296 299 298 296 295 295 295 296 299 297 297 300 300 299 299 298 297 296 296 290 290 289 289 293 296 296 296 300 297 290 297 304 303 303 301 302 301 296 296 300 301 301 298 302 304 302 301 303 305 304 304 304 306 304 300 297 296 297 296 296 296 295 295 295 296 295 294 293 295 295 293
298 297 297 298 298 300 301 300 301 300 297 295 294 295 290 289 293 297 295 290 288 289 291 293 294 297 300 298 298 297 296 296 290 289 289 289 289 288 288 287 286 288 289 288 292 296 295 295 296 296 295 296 294 294 294 295 295 295 295 296 298 300 300 301 303 304 297 296 299 294 295 293 294 295 295 293 293 294 292 293 294 293 292 291 290
298 297 298 298 297 300 300 301 300 301 300 297 297 295 294 294 289 288 289 289 289 288 288 288 289 289 296 298 293 290 290 289 289 289 290 289 289 288 287 287 287 287 287 290 293 294 293 292 293 294 294 296 293 294 293 294 293 293 294 295 298 296 295 297 297 293 291 290 291 291 292 292 292 292 291 290 291 292 293 292 293 293 292 292 290
298 299 300 300 301 298 302 302 302 301 301 300 297 296 295 293 294 290 288 289 289 288 288 289 289 289 289 291 297 298 293 290 289 289 290 290 289 287 287 287 286 287 287 288 290 293 294 294 294 293 294 294 294 293 294 295 294 294 293 292 293 294 293 293 293 294 290 291 290 289 289 289 289 289 289 289 288 290 290 289 289 288 289 290 290
297 298 298 300 301 300 300 302 302 303 302 300 300 298 296 294 293 293 293 289 288 288 288 289 289 289 289 288 288 289 289 289 289 290 290 290 289 288 286 287 287 286 288 291 292 292 293 295 297 298 298 295 295 295 296 298 296 294 295 293 293 295 296 294 290 290 289 289 289 288 288 288 288 288 288 288 288 287 288 288 289 289 289 287 287
298 298 298 299 300 300 300 301 301 301 302 301 301 300 300 300 296 294 294 294 295 293 290 289 289 290 290 289 290 290 290 289 289 289 289 289 289 289 288 290 290 286 290 292 294 294 296 297 297 299 298 297 297 293 293 295 295 295 294 295 296 296 295 294 292 289 288 289 288 288 288 288 288 288 288 288 288 287 287 287 287 287 287 287 287
298 294 291 294 299 299 299 299 299 299 300 300 299 298 299 299 299 297 297 295 294 294 295 296 291 288 294 293 291 289 290 291 289 289 290 290 290 290 289 291 293 292 292 298 299 298 296 297 296 297 298 296 294 294 294 297 295 294 294 291 292 292 290 289 289 289 288 288 288 287 287 287 287 287 287 287 287 287 286 287 287 288 287 287 287
298 297 298 298 299 299 298 300 301 299 299 299 300 298 298 298 297 297 296 297 297 297 295 297 296 292 292 293 292 292 291 290 290 290 289 290 291 291 293 293 292 294 295 297 297 297 298 297 297 297 297 297 297 295 296 294 295 294 295 292 289 289 288 288 287 287 287 288 287 288 288 288 287 287 287 287 286 286 286 286 286 287 287 287 287
297 296 296 295 297 297 301 299 301 299 293 294 296 300 298 299 296 296 296 296 294 296 297 297 298 298 296 296 293 293 293 292 291 290 290 290 291 293 295 295 295 295 295 296 296 296 296 297 297 297 297 296 296 297 294 296 296 295 292 292 291 289 288 288 288 288 288 288 288 287 287 288 288 287 287 286 286 286 287 287 287 287 287 287 287
297 295 295 295 296 297 300 298 297 293 295 297 297 297 297 296 296 295 293 295 293 293 296 295 293 294 292 293 298 295 294 294 292 293 293 293 293 292 294 294 295 295 294 296 296 296 295 296 297 296 296 296 296 296 294 295 294 293 291 289 287 287 288 288 287 287 287 287 287 287 287 287 287 287 287 287 286 287 287 287 286 287 286 286 286
296 290 287 289 291 297 297 296 295 296 297 298 296 295 293 294 295 295 295 294 293 293 293 295 294 293 293 293 294 295 294 294 292 292 292 292 293 294 294 293 294 293 294 294 295 294 294 293 293 293 293 293 293 294 294 291 292 291 290 289 288 288 288 288 288 288 287 287 287 287 287 287 287 287 287 287 287 287 287 287 287 286 286 286 286
297 296 294 291 294 296 298 296 297 296 295 297 295 295 294 293 294 294 294 293 292 292 294 293 293 293 293 293 292 293 291 290 292 291 291 290 291 293 294 291 291 293 292 293 293 293 292 292 291 290 290 289 290 290 291 290 290 290 290 289 289 288 288 287 287 287 287 287 287 287 287 288 288 287 287 287 287 287 287 287 286 286 286 286 286
297 297 294 294 293 296 295 296 296 296 295 295 296 295 294 293 294 292 293 293 291 292 293 293 293 293 292 290 289 288 292 294 294 293 292 291 291 292 292 291 292 292 292 291 291 291 291 290 289 288 288 287 288 287 288 288 287 289 290 289 289 288 287 287 287 287 287 287 287 288 288 288 288 288 287 287 288 287 287 287 287 287 287 286 286
296 296 296 296 296 296 296 294 295 297 295 294 293 294 297 293 293 294 292 291 291 291 292 293 294 293 291 289 289 289 295 295 295 293 294 294 292 292 291 292 293 292 291 290 291 288 288 288 288 288 287 287 287 287 287 286 287 287 288 289 288 287 287 287 287 287 287 288 288 288 288 288 288 287 287 289 287 287 287 287 288 287 287 287 286
295 296 296 297 296 296 295 296 294 293 294 294 294 292 293 295 295 294 292 294 291 291 291 291 292 293 293 290 290 290 294 294 291 292 292 291 291 290 291 290 291 292 291 291 291 289 288 288 288 288 288 288 288 287 287 286 286 286 287 288 288 287 287 287 287 287 288 288 288 288 288 288 288 288 287 288 287 287 287 287 286 286 286 286 286
295 296 297 296 297 295 298 296 293 293 292 290 294 292 293 294 294 295 294 293 291 292 291 292 292 292 291 292 292 292 292 292 292 292 291 289 289 289 289 289 289 289 289 289 289 289 288 288 287 288 288 288 288 287 287 287 286 286 286 286 287 287 287 287 287 288 287 288 288 288 288 287 288 288 287 287 287 287 287 286 286 286 285 285 285
296 296 296 297 298 299 296 295 293 293 291 291 292 294 292 294 293 292 292 292 294 294 292 291 291 291 291 292 291 292 292 291 290 290 289 288 288 288 289 288 288 288 288 288 287 287 287 287 286 285 285 286 286 287 287 286 285 285 286 285 285 285 285 286 287 287 288 288 288 288 288 288 287 287 287 287 287 287 286 285 285 286 285 285 285
296 296 295 296 295 295 295 297 293 295 293 293 292 294 295 293 293 292 292 291 291 292 292 291 291 291 292 290 290 290 291 290 290 289 288 288 288 288 288 288 287 287 287 287 287 286 286 286 286 285 285 285 286 285 285 286 286 286 285 284 284 284 284 285 286 287 287 287 287 288 288 287 287 287 287 287 286 286 286 285 285 285 285 285 284
297 296 295 297 296 296 295 296 294 293 294 293 293 292 291 294 292 291 289 292 292 292 293 293 293 292 291 291 291 291 290 290 289 289 288 288 288 288 288 287 287 286 287 287 286 286 286 286 285 284 284 285 284 285 284 285 285 285 284 283 283 283 283 284 286 287 287 287 287 286 287 286 287 286 286 286 285 286 285 284 285 284 284 284 284
295 295 296 295 296 295 297 296 295 292 295 293 293 293 291 292 292 292 292 291 292 293 292 294 293 294 292 294 294 291 290 290 290 290 290 288 288 288 287 287 286 287 286 286 286 285 285 285 285 285 285 284 284 284 283 283 283 283 283 282 280 280 281 283 285 285 285 286 286 287 287 286 285 285 285 285 284 285 284 284 284 284 284 284 284
296 295 295 295 295 295 295 296 295 296 295 296 291 292 292 293 293 292 292 293 292 293 293 292 293 293 294 292 292 293 292 291 291 290 290 289 289 288 287 287 287 286 286 286 285 285 285 285 285 285 284 283 283 283 283 282 282 282 281 281 280 279 280 281 283 283 284 287 286 287 286 286 285 284 284 284 284 283 284 283 283 284 284 284 284
296 296 295 295 294 294 295 295 295 297 295 295 294 293 292 292 292 292 294 294 295 293 293 293 292 293 293 293 291 293 292 291 292 291 290 289 289 289 288 286 286 286 285 285 285 285 284 284 284 284 284 283 283 282 282 282 281 281 280 280 280 279 279 280 281 281 282 284 286 285 285 285 284 284 284 284 284 283 283 282 282 283 282 282 283
295 295 295 295 295 295 295 295 295 295 295 294 295 295 293 292 292 293 293 293 292 294 293 293 293 293 293 293 293 294 293 293 294 293 291 290 289 288 287 286 286 285 285 285 284 284 284 283 284 284 283 283 282 282 281 281 280 278 279 279 278 278 279 279 281 280 280 282 284 285 284 284 283 283 283 282 282 283 283 283 283 283 282 282 282
Wind_Speed
2 3 6 6 4 7 10 8 9 8 8 7 7 5 3 4 4 3 4 3 3 3 4 4 4 4 4 4 3 3 3 1 2 2 3 2 1 4 3 2 4 4 5 4 5 6 4 3 3 5 3 5 4 5 5 5 4 5 6 6 4 3 3 3 6 6 3 5 8 9 10 9 8 8 8 6 6 5 7 8 9 6 5 5 4
7 6 1 4 7 9 10 8 9 9 9 8 7 8 6 7 5 4 3 3 3 4 5 4 4 4 5 4 4 4 3 3 2 1 2 2 3 2 1 1 4 6 3 4 4 4 3 4 4 5 4 4 4 4 3 5 4 6 7 8 6 6 4 4 5 5 4 5 6 7 9 10 7 9 7 7 6 6 8 7 7 7 7 6 5
7 3 4 4 5 4 5 7 9 9 10 9 9 9 7 8 7 6 4 4 3 3 4 4 4 3 3 4 4 4 3 3 1 2 3 3 2 0 2 5 5 3 4 4 5 4 4 6 4 3 3 4 4 2 3 4 4 4 6 7 8 7 7 6 6 4 7 4 5 7 6 6 5 9 8 8 7 7 9 8 8 7 7 8 6
6 6 5 4 5 6 4 4 5 11 10 8 8 6 6 6 5 6 5 4 5 4 4 3 3 3 3 4 4 3 4 3 1 3 3 2 1 3 4 4 3 2 3 3 5 5 5 4 3 3 3 3 2 3 2 3 3 2 4 5 4 3 7 5 6 5 4 5 4 5 5 6 3 9 9 7 8 6 9 8 9 10 9 9 8
4 2 5 5 4 6 4 3 5 5 7 5 7 6 6 6 4 5 5 4 4 4 3 3 3 4 3 4 4 3 4 3 3 3 2 1 2 3 3 3 2 3 1 5 4 6 5 5 4 3 3 1 1 3 2 2 3 2 4 4 2 3 5 5 6 6 5 5 4 3 6 5 4 6 10 8 8 7 7 10 10 9 9 8 7
6 6 6 7 7 8 5 4 5 4 3 6 7 6 6 5 4 4 5 5 5 4 3 3 4 4 3 3 4 4 4 4 4 4 3 1 3 2 2 2 1 4 5 4 5 3 3 4 4 4 2 1 0 1 1 0 3 2 3 4 3 4 3 1 5 7 7 5 7 2 5 6 5 3 10 9 8 7 6 8 9 5 10 7 6
5 6 7 6 7 6 6 6 5 4 1 6 6 6 5 5 5 6 3 4 3 4 3 3 2 4 3 4 4 4 4 4 4 4 4 3 2 2 3 2 4 3 1 4 4 4 4 4 4 4 2 1 2 1 2 3 4 4 4 4 3 4 2 0 2 6 7 5 6 3 4 4 5 4 5 9 8 8 7 5 8 6 7 10 7
3 3 6 7 6 5 5 5 5 4 1 5 7 6 5 6 5 5 4 4 3 4 4 4 2 3 2 4 4 3 4 4 4 4 4 3 3 3 2 2 3 1 2 4 3 2 3 4 4 3 2 1 1 0 1 2 3 3 4 4 4 3 1 1 2 2 5 6 6 6 4 5 4 4 3 6 7 7 8 6 7 7 6 5 7
6 5 6 7 6 5 5 5 4 3 2 4 5 6 4 3 6 5 4 4 3 3 4 4 2 3 2 4 4 4 6 7 7 6 1 5 3 3 2 2 3 1 1 4 3 3 3 6 9 7 8 9 12 9 8 6 2 1 3 3 2 1 2 3 3 0 2 4 5 6 5 6 6 5 6 4 8 7 7 7 6 7 8 7 6
5 7 6 6 6 6 6 6 5 5 3 4 5 5 3 1 5 4 4 4 3 3 3 4 3 3 4 4 5 8 6 5 6 13 11 6 2 3 3 3 2 3 4 3 3 2 5 10 7 11 10 8 8 9 9 9 8 5 2 3 4 2 1 2 3 4 2 2 3 5 5 6 6 7 6 6 4 5 5 6 6 6 8 6 7
5 6 8 6 6 6 7 7 6 8 7 7 5 5 4 3 5 3 3 3 2 3 3 3 3 2 4 4 8 8 6 5 10 13 14 15 9 6 4 5 7 5 4 5 4 5 9 10 5 7 8 9 6 5 7 8 8 7 6 4 3 2 2 2 1 2 3 2 2 1 3 4 6 6 7 8 6 5 8 5 6 6 7 8 6
7 7 8 7 5 6 6 8 8 8 9 8 7 7 6 5 4 4 4 2 2 3 2 3 2 1 3 6 8 7 6 8 10 12 12 12 10 6 5 5 3 2 3 4 6 9 8 5 5 5 5 1 3 4 5 7 5 3 5 4 4 2 3 1 1 1 0 0 2 2 2 3 3 3 4 6 8 7 7 6 7 7 7 7 7
7 7 7 7 6 7 7 8 9 8 8 8 7 8 8 8 8 8 8 8 7 5 3 4 3 0 3 7 9 8 6 10 9 11 12 12 12 7 4 4 4 4 8 11 9 6 6 3 1 2 4 9 3 2 3 3 4 6 6 2 3 5 7 6 5 4 2 2 2 3 4 2 2 3 3 2 6 6 4 7 5 6 6 6 7
8 5 7 7 7 6 7 8 8 8 7 7 8 8 8 8 6 6 7 7 7 7 9 10 10 9 8 11 9 7 6 9 10 11 12 12 10 7 3 3 3 3 6 6 4 2 1 3 2 3 4 3 1 1 1 2 3 4 6 6 4 4 7 7 7 7 5 4 4 5 4 4 6 6 6 4 4 4 6 9 4 2 4 4 3
9 9 8 5 5 8 7 7 6 7 8 7 6 7 7 5 7 7 7 7 7 7 7 8 7 8 10 9 8 7 5 9 11 12 13 11 10 5 2 2 2 3 2 3 4 6 8 7 6 6 4 1 1 2 3 2 2 2 2 8 8 4 4 6 4 3 3 3 4 4 5 4 3 3 5 7 9 9 10 5 1 3 3 2 4
10 9 10 9 6 4 7 7 7 7 7 8 6 5 6 5 5 3 4 5 5 6 7 6 7 7 8 9 7 7 5 10 10 12 13 12 9 2 2 1 1 0 1 2 2 4 5 3 3 3 2 1 4 4 1 2 1 1 4 7 6 1 2 6 6 3 3 2 2 1 0 1 2 3 5 4 4 7 6 6 6 6 4 1 0
10 9 9 9 7 6 5 5 5 7 7 7 6 6 6 6 5 3 4 4 5 5 5 6 6 7 7 7 7 6 6 8 11 13 13 13 8 4 3 3 2 1 0 0 0 3 6 4 5 4 2 1 3 1 5 3 3 2 3 6 6 3 3 3 5 7 7 7 7 5 5 7 8 8 9 9 6 2 4 5 5 7 6 7 6
10 9 9 8 7 7 7 6 5 5 5 6 6 6 6 5 4 4 4 5 3 3 5 6 6 6 7 7 7 7 6 7 12 13 12 12 7 4 4 4 5 3 3 3 4 7 7 10 5 2 1 2 8 7 4 1 2 4 4 7 9 2 1 1 3 4 3 6 7 8 7 6 7 7 9 9 10 6 3 3 1 4 4 5 4
10 9 9 8 7 6 7 7 7 8 7 7 7 5 4 3 5 4 5 4 3 5 6 6 6 6 5 7 8 8 7 8 12 12 12 11 9 5 5 4 3 3 3 2 2 5 5 4 4 3 2 2 7 7 7 3 2 3 6 8 7 4 1 3 3 4 3 2 1 2 1 1 1 2 4 9 10 9 7 5 4 6 5 4 3
9 10 11 11 11 10 6 5 6 8 7 5 7 8 4 4 5 6 5 3 4 5 5 5 5 4 5 7 7 7 7 6 8 10 10 11 9 5 4 5 7 7 6 5 4 4 5 5 8 9 10 12 11 10 9 6 1 1 3 5 6 7 1 2 1 2 3 3 2 2 1 2 2 1 1 3 6 7 7 5 5 5 6 7 5
10 9 10 11 11 11 10 10 9 6 6 5 5 4 5 5 4 5 5 4 5 5 6 3 3 4 6 6 7 7 6 7 7 8 9 9 9 7 5 5 4 4 5 6 3 4 3 6 6 9 9 8 6 7 4 4 2 2 3 4 2 2 1 1 0 1 2 2 2 2 2 2 1 1 3 5 6 6 7 8 7 6 5 5 4
10 11 11 10 10 10 10 10 9 9 10 9 6 4 5 6 5 6 5 3 4 5 3 2 3 4 4 5 7 7 8 10 5 5 7 8 8 8 5 3 2 3 4 4 6 8 7 5 5 7 9 8 7 5 4 3 2 3 4 6 4 2 2 2 2 3 3 4 3 2 3 3 2 2 3 4 5 6 6 6 7 8 7 7 7
10 11 10 10 9 9 9 10 8 7 8 8 8 7 6 5 4 5 6 6 4 5 5 3 4 4 4 4 5 6 6 6 8 5 4 7 7 8 5 3 3 3 3 3 5 4 3 3 3 4 3 2 1 2 2 5 4 3 9 9 8 10 8 5 3 4 4 3 4 4 4 4 4 4 3 5 5 6 6 6 6 7 8 8 9
10 10 10 10 9 9 10 10 9 7 8 7 6 7 7 6 6 5 5 2 4 6 5 3 2 2 3 4 4 5 5 5 4 5 4 3 5 5 4 3 4 2 0 1 3 3 2 1 1 3 1 2 2 2 2 2 3 6 8 9 11 8 5 6 4 4 3 3 4 5 5 4 4 4 5 5 5 6 6 5 6 6 8 8 9
9 9 9 10 9 9 8 8 9 9 8 8 8 7 6 7 7 8 6 5 6 6 4 3 3 4 6 6 7 6 5 6 4 3 3 1 1 2 1 0 2 3 4 5 4 2 1 3 4 1 3 5 6 4 3 5 3 3 5 8 6 4 5 5 4 3 3 4 4 4 3 2 2 5 7 6 5 6 6 5 5 6 6 7 7
8 8 8 7 8 9 8 8 9 10 10 9 9 9 9 9 8 8 9 9 8 5 3 4 4 5 5 5 6 8 8 6 4 2 2 2 1 2 1 2 1 2 3 2 1 2 4 6 2 2 3 3 3 1 0 0 1 1 2 2 3 4 5 6 6 5 4 2 2 2 3 4 5 6 6 6 6 5 5 5 5 4 4 5 5
4 6 7 7 6 6 6 6 6 8 8 8 7 8 8 8 8 8 8 8 8 8 8 9 8 8 6 6 9 8 8 7 6 6 6 7 6 3 2 2 2 2 1 3 2 2 5 6 2 2 4 3 4 5 4 2 3 3 4 4 1 3 5 5 5 5 5 2 1 2 4 4 5 7 6 5 5 5 5 6 4 4 3 4 6
4 4 3 3 3 3 4 5 5 6 7 7 7 6 6 7 7 7 7 6 6 6 7 8 8 7 7 8 8 7 7 6 6 6 7 6 5 6 6 6 7 6 6 5 6 6 5 5 3 2 2 2 4 4 5 5 3 3 2 3 2 0 4 7 7 6 5 3 3 4 5 4 5 5 5 5 5 5 5 5 5 5 4 3 2
5 5 5 5 4 2 2 3 4 6 7 8 8 6 5 5 6 6 6 4 4 4 5 6 6 5 7 7 6 6 6 5 4 3 4 4 3 5 6 5 4 5 4 5 6 6 5 5 5 6 4 3 2 1 3 5 3 1 2 3 2 1 2 3 4 4 5 4 1 4 5 4 4 3 3 5 4 3 3 4 4 4 3 1 3
4 5 4 4 6 5 4 4 3 6 6 6 6 6 10 13 9 5 4 5 8 10 9 6 3 4 6 7 6 5 3 2 5 7 6 5 4 4 5 6 5 5 8 12 5 3 4 4 4 5 5 2 4 5 6 4 3 3 2 3 2 2 1 1 3 4 5 6 0 3 4 3 5 4 3 4 4 4 4 5 3 2 2 3 4
4 4 2 3 3 3 3 3 4 3 7 6 5 7 5 7 12 12 9 6 7 8 9 9 9 10 7 5 5 9 7 3 7 8 8 8 7 7 7 7 8 8 7 7 3 2 4 5 4 4 3 5 4 4 3 5 5 5 3 3 1 0 1 1 1 2 4 4 4 3 3 3 2 4 6 5 5 4 5 5 4 4 4 4 5
5 3 2 2 1 0 2 2 2 3 3 6 8 5 6 5 3 6 7 7 7 7 6 7 10 10 11 8 4 3 5 6 6 6 6 6 6 7 7 7 6 5 5 2 2 5 4 3 5 5 5 6 7 5 4 4 4 4 4 5 6 6 4 7 5 5 4 5 5 5 6 6 5 5 6 5 5 7 7 6 6 6 6 6 6
5 5 6 5 2 3 3 2 3 2 2 4 4 7 6 5 6 3 1 2 4 4 5 4 4 7 8 6 6 4 0 5 7 8 8 8 7 5 4 5 4 5 3 0 3 3 5 5 5 6 6 5 5 6 7 7 6 6 5 5 5 5 6 5 6 7 6 7 6 6 6 7 7 7 6 6 7 6 6 6 6 6 6 5 5
5 4 5 5 4 4 5 5 5 3 3 3 2 3 2 4 7 5 5 2 2 2 3 4 4 4 5 4 5 3 2 4 7 7 7 7 8 8 5 4 5 1 1 1 2 4 5 5 5 5 4 4 4 5 5 5 6 6 6 7 6 5 6 6 6 6 5 6 6 6 6 6 6 6 7 7 7 6 5 4 4 4 5 4 4
4 1 5 7 4 5 6 5 4 5 4 4 5 5 4 4 3 5 5 6 7 5 3 1 3 5 2 1 1 2 3 5 7 8 9 10 8 10 7 2 1 1 2 3 1 5 5 6 6 6 6 5 5 5 6 6 6 7 5 4 5 5 4 5 5 5 5 5 6 6 6 7 6 5 5 4 3 3 3 3 4 4 4 4 4
9 7 7 8 7 4 4 2 2 3 3 4 3 3 2 3 5 6 6 7 5 4 6 3 4 5 7 8 3 2 3 5 7 8 10 11 13 11 6 6 5 7 8 7 6 5 5 4 5 4 4 5 6 5 6 4 5 5 4 3 3 3 3 4 4 4 4 5 5 6 6 5 5 5 5 5 4 3 3 3 4 2 2 2 4
6 6 5 5 5 6 1 2 1 2 4 4 2 3 3 3 3 5 5 5 4 4 6 5 3 2 3 4 9 9 8 8 8 8 7 9 12 6 5 6 6 7 7 7 7 5 5 5 4 4 3 4 4 5 4 5 4 4 4 4 4 4 3 3 3 3 4 5 5 4 4 3 3 3 4 4 3 3 2 2 1 1 2 3 1
5 3 4 3 4 6 2 3 3 4 5 7 7 5 5 5 6 4 4 2 4 5 4 6 7 6 5 6 9 7 10 8 6 7 8 9 7 5 6 5 7 7 6 6 7 6 5 6 7 7 7 6 4 4 4 5 3 3 3 3 4 3 6 6 5 6 5 5 4 4 4 4 3 3 3 4 3 1 0 2 3 4 5 4 3
5 2 3 5 6 5 4 5 6 7 4 2 5 3 2 3 4 4 3 4 5 5 6 7 7 6 6 6 5 9 9 7 4 5 5 5 5 4 5 5 6 6 6 7 7 7 7 8 8 8 8 8 8 7 4 3 3 3 3 4 3 2 3 3 3 4 4 3 3 2 3 3 3 3 2 2 2 2 2 4 5 4 2 3 4
2 4 1 3 4 1 3 4 3 3 1 2 4 5 4 4 4 2 4 4 3 2 1 6 6 6 5 5 6 6 7 4 2 4 4 4 4 5 5 4 4 6 5 5 6 7 7 7 7 7 7 7 7 7 7 7 5 4 2 2 3 4 3 2 3 3 3 2 3 2 3 2 2 2 2 3 2 3 4 4 3 3 4 4 2
4 3 2 1 1 4 4 5 2 4 4 5 4 4 3 5 5 5 4 3 1 1 3 7 6 5 4 6 8 8 4 1 4 4 4 4 4 4 4 5 4 5 6 5 5 7 6 6 5 5 5 5 5 5 6 5 5 5 3 3 4 3 3 2 2 3 3 3 2 2 2 4 2 1 2 2 4 5 4 3 4 5 4 4 4
5 5 5 4 4 4 3 3 2 1 2 7 6 5 2 5 4 2 3 2 3 5 4 5 4 5 6 11 10 11 6 5 4 5 5 5 5 5 4 5 5 5 4 4 5 4 4 4 4 4 4 5 5 5 5 5 6 5 5 2 3 3 3 3 2 2 2 3 3 2 1 1 2 3 4 3 3 3 3 4 6 4 2 3 2
5 3 3 2 3 3 4 5 7 6 5 4 2 1 5 2 3 3 3 3 3 4 4 4 4 4 3 5 6 9 4 3 4 5 5 4 5 4 4 4 5 5 5 5 4 3 3 3 3 3 3 4 5 5 5 5 5 5 5 5 4 4 3 2 2 0 0 1 2 1 1 2 3 4 3 2 3 4 4 5 4 4 4 5 5
5 3 0 1 1 2 1 3 5 4 3 2 1 3 3 3 3 4 3 3 2 3 4 3 3 3 1 3 5 5 3 3 3 5 5 4 4 4 4 4 4 4 5 4 4 4 3 3 3 3 3 3 3 4 4 4 4 5 5 5 5 5 3 2 1 1 2 2 3 2 1 1 0 1 2 3 3 2 4 4 5 6 3 3 5
4 4 1 2 1 1 1 5 5 4 4 3 3 4 2 3 3 3 5 2 1 3 5 3 4 2 1 3 4 3 4 3 4 5 4 4 4 4 3 3 3 4 3 4 4 4 4 4 3 3 4 3 2 3 4 4 4 5 5 5 5 5 5 5 4 4 3 3 2 1 1 0 2 2 3 4 4 4 1 2 3 5 5 6 5
3 3 2 2 2 2 2 1 1 5 7 4 3 1 3 5 5 3 1 0 4 1 4 3 3 2 1 3 3 5 4 4 4 4 5 3 3 3 3 2 2 3 3 3 3 4 4 4 4 4 4 4 4 3 3 3 4 4 5 5 5 4 3 4 5 5 4 4 4 2 2 3 4 4 5 5 4 4 4 5 2 1 2 1 2
3 3 2 1 1 1 2 2 4 4 4 5 4 1 1 2 4 3 4 2 2 2 3 4 3 2 1 1 3 3 4 4 4 3 3 4 3 3 3 3 3 3 4 4 4 4 4 4 3 3 4 4 4 5 4 4 4 4 4 5 5 5 5 5 4 4 5 5 4 3 4 4 3 4 5 5 4 5 4 4 5 5 5 3 2
3 3 2 2 2 2 1 1 1 1 2 3 1 2 3 1 3 3 5 3 4 1 3 3 3 2 2 1 2 3 5 4 4 4 3 2 3 3 3 3 3 3 3 3 4 3 3 3 3 4 4 4 4 4 4 4 4 5 5 5 5 5 6 7 4 5 4 4 4 3 3 3 3 3 3 4 4 5 4 5 4 4 3 4 5
1 2 2 2 3 3 3 1 1 1 2 1 2 2 2 3 1 2 5 4 6 2 4 4 2 2 2 3 2 2 4 3 3 3 3 3 3 3 2 2 2 3 3 2 3 3 3 3 3 4 4 4 4 4 4 4 4 4 5 4 6 9 9 8 5 6 7 5 4 5 5 5 4 4 2 2 3 3 5 5 4 4 5 5 5
1 0 2 3 2 3 3 3 2 1 1 0 2 2 3 4 5 3 1 2 0 4 4 4 4 2 3 1 4 3 3 3 1 1 3 3 3 1 2 2 1 2 2 2 2 2 2 3 4 4 4 4 4 4 4 3 3 4 4 4 8 9 10 11 10 12 9 4 5 4 4 5 5 5 5 6 6 4 5 4 3 4 4 5 5
1 2 1 1 2 2 2 3 3 3 2 2 1 1 1 2 5 4 5 4 5 1 4 4 5 5 3 4 2 1 1 1 1 1 2 3 3 2 2 1 1 2 2 2 2 2 2 3 3 4 3 3 3 3 3 3 3 2 4 6 8 9 10 9 7 10 12 8 5 5 4 5 4 5 5 5 5 4 3 4 4 5 4 4 4
Wind_Direction
57 48 64 108 144 139 143 148 131 135 136 139 143 154 150 127 122 135 135 157 162 172 144 144 140 141 135 156 143 122 131 174 97 105 103 172 108 109 184 195 147 125 120 116 103 141 170 125 115 98 118 136 159 160 175 173 189 163 145 137 142 158 131 119 129 143 136 126 132 144 161 170 170 154 151 156 160 184 140 135 152 173 155 143 137
80 102 119 206 190 156 143 142 142 147 149 155 150 174 161 143 145 133 166 136 181 171 143 140 143 147 149 149 140 133 148 118 106 123 121 73 102 163 204 179 95 110 140 119 135 121 135 120 97 132 154 136 168 177 172 188 154 161 144 150 159 177 169 160 139 147 140 131 138 149 162 187 152 156 154 152 172 160 139 152 173 193 156 150 150
98 114 160 198 137 98 122 139 153 152 158 166 177 170 152 146 155 149 150 158 194 165 136 146 154 143 140 135 136 142 141 124 144 99 93 104 158 149 50 78 93 95 98 137 140 131 106 106 137 145 146 149 197 152 175 221 192 156 147 159 162 177 176 166 140 140 142 156 151 154 163 193 156 161 150 158 179 167 151 169 180 201 165 157 155
127 160 137 106 136 139 111 86 128 154 163 168 156 147 137 133 140 143 149 164 183 136 133 150 143 127 133 130 129 144 121 124 145 111 131 174 99 83 79 86 91 122 152 130 104 105 106 105 121 143 135 159 215 122 202 263 335 116 129 87 130 169 173 132 153 125 137 143 187 157 162 192 171 164 146 167 183 187 166 178 190 200 165 161 154
122 102 122 130 116 102 65 38 84 111 137 134 132 135 134 129 139 145 142 166 127 116 153 144 131 125 144 144 141 142 128 152 133 116 132 154 114 97 130 138 164 167 121 102 106 106 128 129 149 120 118 145 70 108 239 334 325 120 98 103 132 59 123 132 136 132 134 160 192 179 154 181 212 167 154 168 189 197 189 179 202 200 157 150 143
140 146 145 139 132 127 135 123 107 83 95 124 127 124 120 121 127 122 153 143 140 155 164 139 140 128 181 147 140 135 143 149 143 138 145 162 119 162 129 149 115 72 80 100 96 102 107 131 125 117 130 133 70 90 287 336 322 47 99 145 136 101 106 125 127 145 150 160 179 186 155 170 224 205 169 170 177 192 210 189 208 171 133 129 133
145 141 144 142 135 134 144 136 120 87 41 124 123 130 138 139 143 137 144 126 149 131 138 116 136 150 174 137 135 144 150 156 130 136 152 144 150 113 88 82 86 100 152 94 95 105 112 101 98 94 101 77 64 43 20 31 26 12 35 36 40 109 90 243 137 154 154 156 172 190 164 181 192 232 194 174 171 187 199 206 206 122 153 143 140
147 138 136 132 124 134 138 134 122 132 76 114 127 136 136 149 140 130 133 133 149 140 147 144 176 151 163 130 128 130 137 132 139 150 154 136 117 100 110 93 94 95 51 87 89 92 92 106 121 128 118 94 165 147 83 48 47 13 359 31 23 47 107 296 304 130 175 161 167 189 165 175 198 237 253 173 176 195 203 202 194 147 162 159 156
141 143 133 127 118 108 100 101 114 120 107 102 110 109 126 141 127 135 131 131 162 157 152 137 187 142 143 119 127 105 61 46 39 23 43 129 121 121 128 100 92 78 73 80 76 56 57 63 50 55 63 65 62 70 60 46 51 37 18 356 9 39 344 343 299 192 219 190 173 177 172 171 184 201 242 238 198 201 197 207 188 164 160 159 175
140 138 116 97 101 102 92 81 78 81 108 119 113 110 126 92 103 119 131 132 182 148 149 136 181 150 148 131 113 79 69 58 43 57 41 30 114 110 77 72 82 55 42 60 63 40 60 60 45 57 67 67 73 75 70 60 54 65 65 68 36 8 232 239 275 286 258 253 208 182 185 191 191 189 205 235 239 214 204 203 181 179 153 176 179
133 127 105 91 82 86 86 79 73 70 62 59 65 112 110 73 103 131 127 137 148 142 138 137 176 149 145 132 100 82 65 31 32 58 44 35 33 35 44 57 42 19 52 16 5 61 52 56 40 22 23 16 21 40 83 105 104 88 77 78 110 101 39 358 320 4 0 329 323 294 217 210 202 187 199 214 229 200 216 202 190 174 173 169 198
120 104 105 110 96 74 78 76 63 58 52 48 56 48 55 51 51 59 57 86 85 99 116 121 163 59 119 92 86 82 74 18 38 49 54 41 37 35 33 45 67 64 52 59 23 20 50 48 32 0 320 37 46 25 20 11 11 90 144 143 149 181 205 189 211 301 107 338 293 286 320 293 296 261 229 204 218 224 220 210 197 192 193 187 182
70 88 91 95 96 90 81 76 70 58 57 58 45 57 65 62 57 55 56 45 34 36 11 103 122 68 102 96 76 64 58 20 34 49 50 41 36 28 31 76 41 34 42 42 44 48 53 51 39 292 304 333 9 45 41 17 1 334 331 272 267 216 207 224 228 207 175 183 186 240 230 219 273 304 304 6 11 330 264 227 217 212 200 198 196
37 62 108 108 100 94 99 102 105 99 76 62 62 64 62 63 68 70 59 47 56 54 52 49 40 30 44 72 75 58 49 10 29 45 46 41 32 26 5 22 68 85 106 121 142 135 146 154 161 270 265 261 350 16 33 38 0 341 332 317 276 241 246 251 248 250 244 224 216 223 219 166 195 218 215 159 149 224 290 280 278 240 235 209 183
46 41 45 63 118 122 121 116 111 107 102 90 83 81 67 40 42 41 52 49 54 61 53 51 49 58 72 77 73 61 43 18 36 39 37 32 11 4 351 351 19 112 139 150 182 163 189 197 185 191 198 220 318 36 19 27 48 10 327 268 257 265 47 31 0 318 282 302 311 315 323 327 301 267 221 208 192 188 210 189 159 344 3 353 48
48 46 47 35 39 91 122 123 122 121 118 117 111 103 107 103 92 60 58 65 49 61 60 61 67 66 75 84 83 79 54 31 36 38 33 16 355 337 325 313 297 2 101 135 181 198 193 175 144 113 89 35 32 38 173 212 199 191 276 282 283 355 124 200 180 112 50 54 88 92 35 174 122 48 356 317 227 198 173 150 130 129 127 32 10
38 43 53 48 37 43 58 86 121 130 130 123 118 110 106 95 77 53 71 67 60 47 72 71 67 77 85 87 89 81 65 32 42 43 33 22 9 355 331 318 328 1 64 76 353 25 39 60 62 77 89 134 108 130 252 282 300 277 264 275 265 190 204 191 79 92 114 117 123 117 97 76 60 45 38 41 36 342 167 151 174 161 163 167 170
47 50 61 54 45 47 42 51 59 88 111 114 110 103 102 110 118 113 99 87 79 91 79 75 70 69 72 81 89 88 71 42 50 45 40 25 12 356 342 346 358 11 17 26 47 80 82 82 81 95 270 309 35 17 2 223 281 297 319 322 304 282 214 209 131 61 102 108 101 96 90 76 66 65 66 55 44 41 121 144 45 94 107 141 190
31 34 40 59 63 58 66 60 63 68 58 69 83 90 91 100 99 71 72 63 84 82 77 78 79 77 90 98 96 89 84 53 44 46 44 36 26 359 354 345 333 344 355 351 61 106 102 111 105 66 46 49 62 60 53 48 326 347 332 299 284 292 230 197 174 169 174 172 198 166 110 102 50 72 67 54 50 59 75 100 99 116 161 187 177
24 33 40 38 33 39 46 75 79 73 76 83 109 116 110 75 90 107 96 98 92 72 68 80 97 105 98 85 79 82 80 62 44 46 48 46 33 22 347 21 17 5 1 10 10 43 61 68 48 27 27 19 24 21 28 62 30 305 271 268 279 281 192 195 194 203 172 184 174 204 154 147 149 172 85 64 62 56 66 76 94 135 161 173 156
15 32 43 43 41 35 26 20 29 65 95 86 55 45 69 75 60 84 94 101 95 80 89 77 78 86 82 84 85 77 92 90 58 42 53 55 44 38 43 47 10 2 343 347 28 53 20 65 75 34 41 30 14 19 36 27 6 297 278 271 283 298 119 225 229 318 173 155 165 175 155 165 103 68 72 69 68 64 57 50 54 60 84 99 112
24 27 36 45 48 43 32 26 26 30 29 36 46 76 113 136 143 103 72 36 91 119 111 126 117 98 101 104 93 92 81 85 96 56 60 72 63 51 57 68 11 337 351 16 39 52 42 46 48 13 20 17 17 16 29 30 349 284 302 330 309 313 245 255 175 218 209 171 171 171 197 173 167 122 118 114 99 95 93 84 72 69 63 77 99
23 29 27 32 38 42 38 33 35 29 29 30 33 26 27 44 73 117 148 155 144 142 151 149 139 134 123 108 110 104 104 96 94 93 76 82 95 98 99 85 317 359 23 8 46 67 71 40 43 27 23 70 38 18 17 344 289 3 349 325 298 278 274 264 218 217 212 188 186 203 203 189 175 164 126 89 91 95 95 95 93 86 79 72 72
22 30 29 25 26 35 40 37 26 29 28 28 34 30 22 27 33 24 27 79 135 153 157 126 90 108 121 116 115 108 98 94 78 77 82 54 47 63 63 43 10 25 20 21 57 65 57 33 351 291 296 9 12 2 45 49 6 335 336 334 319 296 266 266 251 233 220 187 197 206 207 195 168 144 109 111 115 116 111 107 99 98 101 96 92
19 26 31 29 25 32 28 37 29 19 28 27 26 23 27 15 21 12 22 30 27 23 52 122 137 137 132 150 145 136 121 90 87 47 28 89 106 110 119 205 277 358 347 41 48 52 299 239 237 338 8 14 357 344 91 94 52 348 352 355 341 300 281 276 278 261 241 231 226 222 204 150 109 106 126 128 120 108 105 99 94 94 108 107 108
29 26 24 27 29 34 30 34 41 32 30 31 27 19 26 38 30 22 15 11 4 27 22 19 46 51 52 61 59 70 74 78 74 63 2 239 241 222 263 244 70 66 314 291 343 246 248 254 223 355 326 346 329 14 49 219 216 202 77 9 346 315 309 328 334 325 296 315 336 347 30 71 100 121 118 124 120 121 122 124 122 135 126 117 114
29 30 25 17 16 24 27 26 48 48 40 36 34 31 35 39 36 27 25 10 13 11 23 26 23 20 28 34 67 69 66 50 27 17 18 8 4 353 59 19 148 194 190 18 334 235 238 241 261 236 228 266 287 284 262 237 229 198 127 102 41 319 304 315 335 326 313 293 228 91 112 122 117 127 149 146 125 126 124 124 124 121 119 136 138
34 30 23 24 14 20 18 12 55 74 55 49 44 37 40 55 50 42 25 18 11 16 29 30 23 13 22 27 48 57 55 50 32 5 354 357 343 349 8 22 12 4 13 359 337 315 315 319 296 232 225 265 249 219 215 213 201 119 117 128 112 203 288 296 293 285 274 283 96 127 127 136 144 153 149 139 135 136 138 137 144 155 172 174 112
27 27 18 2 353 348 2 15 91 93 70 57 56 43 21 28 67 75 50 27 32 3 35 42 22 1 39 36 45 53 38 23 20 352 311 315 327 347 3 2 354 335 357 343 325 329 338 328 328 320 295 274 276 290 12 22 9 72 81 81 87 34 330 316 310 306 324 319 149 155 156 151 155 143 127 121 131 137 133 118 120 143 201 182 122
66 47 30 12 347 355 22 11 34 103 97 88 77 54 42 46 39 55 83 59 53 58 72 69 22 349 60 58 47 64 46 9 318 332 343 359 358 331 299 299 293 291 313 319 304 302 301 295 288 277 283 328 16 19 6 355 359 21 29 117 167 170 166 334 338 340 351 351 211 163 148 140 158 166 137 111 94 84 81 93 110 123 99 81 71
108 113 74 19 342 332 31 15 11 33 122 127 105 107 98 49 48 51 53 51 50 65 93 99 66 50 58 87 82 91 100 52 9 1 357 355 349 342 345 343 338 330 343 351 339 289 298 295 299 316 354 36 32 25 16 15 357 10 6 354 331 122 166 162 72 31 34 47 44 31 32 56 32 49 81 79 83 74 52 42 47 43 59 56 51
19 30 70 123 5 24 103 57 33 47 29 126 142 135 126 119 76 46 61 59 42 46 45 62 81 81 64 59 60 55 47 30 359 349 338 339 342 352 350 347 334 337 329 0 315 288 284 335 5 1 8 18 7 5 7 359 353 3 359 356 360 354 37 42 23 48 57 68 62 58 54 55 57 58 54 52 57 51 46 42 34 34 30 36 38
25 16 355 339 87 27 49 48 75 52 56 46 98 141 148 134 126 139 39 66 81 68 49 31 29 89 104 96 99 123 202 317 338 345 343 337 339 335 320 299 286 279 340 251 244 310 21 30 19 15 17 16 10 13 0 357 360 3 12 9 49 48 57 36 37 43 46 57 66 63 62 61 57 54 50 50 55 55 44 42 28 35 38 40 22
50 22 1 325 45 23 29 23 21 23 35 69 66 58 75 129 154 148 129 113 70 58 10 352 13 55 54 68 86 79 5 326 320 320 322 320 306 293 259 260 234 279 235 281 313 37 34 30 30 23 16 15 11 12 359 4 14 7 5 22 40 59 60 58 55 49 47 50 60 60 66 68 65 66 57 51 47 50 45 31 28 36 35 36 26
133 100 15 350 40 42 49 26 8 352 359 37 47 36 28 9 63 134 153 168 168 158 143 167 261 263 257 193 197 200 268 286 304 306 310 311 310 304 276 247 251 131 215 219 5 38 22 36 25 17 8 12 16 28 22 7 15 20 17 35 34 46 54 62 68 72 82 87 84 83 81 77 66 69 78 83 80 75 62 45 40 43 33 15 4
33 29 16 358 3 39 76 59 30 0 344 1 5 80 40 24 31 45 28 22 24 117 144 146 167 167 126 77 41 200 240 279 289 301 308 322 334 359 21 8 22 20 10 26 29 25 39 37 44 28 23 10 13 14 20 11 17 41 7 39 56 67 75 85 91 85 73 72 74 79 81 83 98 107 95 82 69 63 54 52 35 31 20 354 312
29 19 12 357 354 332 0 69 55 354 320 298 313 63 46 49 67 66 47 26 3 15 122 142 142 98 297 16 13 357 347 311 291 303 324 333 343 1 24 14 23 26 17 25 18 9 34 34 41 43 35 29 25 35 24 14 16 42 24 22 40 67 70 84 87 90 83 76 71 74 79 83 82 95 111 104 98 93 68 30 353 329 278 235 252
67 18 23 5 323 320 315 75 1 312 1 46 47 25 30 22 21 63 71 60 13 2 35 76 65 50 31 358 5 4 338 338 48 21 31 20 8 16 27 27 27 25 16 24 17 11 17 27 27 23 18 17 34 56 36 14 14 59 65 47 49 70 88 78 74 77 79 80 77 75 78 71 62 69 78 88 93 102 278 269 256 248 236 222 211
104 41 318 316 311 317 26 49 30 15 4 25 91 88 25 33 48 23 36 42 29 23 8 37 51 45 26 358 8 351 357 4 37 43 39 32 10 21 40 28 37 28 22 22 15 17 19 28 26 23 17 10 2 12 20 34 13 24 100 108 112 93 63 64 70 75 84 94 98 97 94 91 88 90 77 63 21 327 304 294 282 286 310 273 248
7 168 147 306 287 358 61 40 48 86 32 17 44 35 52 32 6 45 52 51 47 45 10 72 56 46 17 20 7 353 357 339 45 67 57 36 25 22 46 48 33 39 32 25 23 22 28 29 26 24 18 8 5 4 1 6 354 5 42 122 129 92 83 73 78 91 94 99 103 94 87 73 46 52 31 15 344 305 272 249 243 249 246 255 273
333 336 94 75 25 302 75 61 25 4 27 17 47 68 34 25 44 33 30 51 7 37 49 83 76 52 36 6 350 355 308 352 35 62 63 55 51 33 37 46 46 37 34 30 33 33 29 32 31 27 22 12 6 1 2 1 356 351 7 52 75 90 88 79 81 87 93 86 91 76 69 63 40 358 326 268 240 247 268 262 253 244 248 250 238
320 333 15 5 349 357 69 123 106 297 68 59 28 350 0 105 98 65 8 19 35 34 43 58 77 83 29 11 355 352 19 41 35 43 43 42 48 51 36 44 48 46 33 38 43 46 42 37 39 31 29 17 12 7 4 4 358 354 347 57 102 89 86 78 61 64 97 107 97 107 107 174 233 244 256 274 319 316 308 291 272 235 232 222 203
323 324 42 45 4 359 9 53 62 46 24 53 67 261 275 339 78 117 90 19 34 53 69 65 54 48 37 343 12 45 37 31 29 43 47 36 39 41 43 33 32 41 40 30 35 46 56 57 50 46 34 31 26 18 12 4 348 358 8 36 59 64 80 87 92 338 303 134 149 148 193 234 249 253 251 282 287 283 281 290 325 26 15 30 21
298 291 26 7 147 214 261 87 76 46 51 26 306 310 337 55 40 37 53 38 10 73 73 71 79 53 13 357 41 60 57 37 25 50 55 48 35 37 43 42 26 32 43 34 19 23 45 49 45 35 41 46 48 33 24 16 10 17 22 39 51 43 49 50 67 268 280 283 113 111 8 22 310 291 282 273 262 298 307 6 6 354 342 24 3
283 284 235 212 240 280 133 119 132 139 166 191 250 233 171 102 90 51 3 359 341 75 96 78 100 119 104 79 62 53 58 60 30 44 62 53 47 44 52 47 35 24 52 58 28 23 34 37 33 33 35 35 51 73 46 32 23 32 35 35 48 45 24 9 355 339 346 18 57 60 32 281 264 291 302 306 312 302 326 54 4 7 10 23 17
297 314 330 18 353 7 339 15 114 161 175 196 202 284 30 72 72 37 23 304 294 336 111 110 88 72 86 97 109 88 75 66 62 52 48 45 36 36 42 68 71 54 44 64 72 47 35 44 41 26 22 25 14 38 70 64 50 37 37 43 30 18 359 349 347 354 359 4 2 351 297 341 344 336 313 302 298 333 13 348 354 64 59 28 2
322 324 313 355 17 320 329 39 46 348 50 47 38 73 238 107 95 152 246 255 273 317 70 78 74 59 36 86 107 122 107 97 95 90 81 75 62 36 23 26 55 67 60 43 35 50 48 39 46 58 45 26 27 22 33 40 38 42 38 31 22 12 2 337 333 352 345 333 336 358 10 358 353 16 347 350 16 16 8 27 18 3 353 344 337
326 317 330 336 318 317 305 22 25 286 87 96 26 320 337 39 156 193 187 182 257 126 81 95 96 71 33 33 82 97 117 121 107 96 98 94 86 78 42 30 34 68 92 86 74 62 49 41 42 47 57 48 44 34 30 29 35 26 29 27 19 356 347 347 1 356 326 308 285 311 329 3 13 6 21 24 21 7 13 6 3 9 0 343 330
279 310 328 334 335 332 327 358 25 339 45 95 132 272 251 266 147 175 252 204 175 156 132 108 97 89 33 4 13 70 66 78 102 122 116 93 82 79 75 36 22 37 59 85 104 110 96 67 61 55 60 59 52 53 47 35 28 29 23 22 356 350 354 2 9 359 348 346 2 25 21 22 11 359 17 44 46 20 358 5 12 7 355 349 343
295 81 344 344 319 310 328 344 335 16 103 332 339 350 26 341 307 320 28 295 246 136 125 129 120 125 129 84 11 27 59 63 25 47 88 101 91 81 93 100 69 31 44 73 74 56 91 109 87 75 70 75 67 59 55 53 42 32 25 3 348 357 6 5 10 9 9 351 3 32 35 26 17 26 17 15 358 15 36 9 4 349 346 336 334
353 334 300 287 300 310 333 332 332 340 356 355 320 18 20 322 300 297 289 329 340 27 140 135 135 139 147 140 154 143 179 156 116 204 132 111 114 96 71 48 92 112 74 30 67 97 67 65 85 84 73 71 77 79 63 57 54 47 16 3 5 6 9 11 7 356 5 3 18 15 25 41 40 36 20 13 356 13 22 356 0 350 338 309 295